Overview Statistics Trail Chart Weather Telemetry Raw packets
 

This is the latest recevied weather packets stored in our database for station/object W0WC. If no packets are shown the sender has not sent any weather packets the latest 10 day(s).

<< 80 81 82 83 84 85 86 >>
Time Temp. Humidity Pressure Rain* Wind** Luminosity Snow
1788107200 33.33° C 38% 1017.1 hPa 0 mm - 612 W/m² -
1788106896 33.33° C 38% 1016.9 hPa 0 mm - 607 W/m² -
1788106591 33.33° C 38% 1017.1 hPa 0 mm - 585 W/m² -
1788106285 32.78° C 39% 1017 hPa 0 mm - 600 W/m² -
1788105981 33.33° C 38% 1017.1 hPa 0 mm - 576 W/m² -
1788105676 32.78° C 39% 1016.9 hPa 0 mm - 559 W/m² -
1788105373 32.22° C 40% 1016.9 hPa 0 mm - 527 W/m² -
1788105068 32.22° C 40% 1017 hPa 0 mm - 503 W/m² -
1788104763 31.67° C 41% 1017.2 hPa 0 mm - 476 W/m² -
1788104459 32.22° C 40% 1017 hPa 0 mm - 482 W/m² -
1788104155 32.22° C 41% 1017 hPa 0 mm - 492 W/m² -
1788103854 31.67° C 42% 1017.1 hPa 0 mm - 485 W/m² -
1788103549 31.11° C 42% 1017.2 hPa 0 mm - 459 W/m² -
1788103248 31.11° C 43% 1017.2 hPa 0 mm - 439 W/m² -
1788102949 30.56° C 43% 1017.3 hPa 0 mm - 423 W/m² -
1788102644 30.56° C 43% 1017.1 hPa 0 mm - 427 W/m² -
1788102343 30.56° C 43% 1017.1 hPa 0 mm - 432 W/m² -
1788102037 30° C 44% 1017.3 hPa 0 mm - 401 W/m² -
1788101732 30° C 44% 1017.1 hPa 0 mm - 319 W/m² -
1788101427 30° C 44% 1017.1 hPa 0 mm - 316 W/m² -
1788101123 30° C 44% 1017.3 hPa 0 mm - 310 W/m² -
1788100819 29.44° C 45% 1017.1 hPa 0 mm - 324 W/m² -
1788100514 28.89° C 46% 1017.1 hPa 0 mm - 271 W/m² -
1788100212 28.89° C 46% 1017.1 hPa 0 mm - 267 W/m² -
1788099908 28.89° C 46% 1017.1 hPa 0 mm - 278 W/m² -

* Rain latest hour (hover to see other rain measurements)
** Current wind speed in m/s (hover to see current wind gust speed)